Weather in Troyanovo

Russia / Kaluga Oblast     54°59′06″N   36°55′27″E
В апреле 2022 года жителям России запретили посещать сайт meteo.paraplan.net по решению Генеральной прокуратуры. Аудитория сайта уменьшилась в 10 раз. Владельцы сайта не видят смысла в поддержке погодного сервера в таких условиях. Сайт будет закрыт в октябре.
temp.,
°C
wind,
m/s
gust,
m/s
humid.,
%
clouds,
%
prec.,
mm/h
press.,
hPa
HPBL,
m
3 october, mon
mon300:00+13e51297100 5.3 997580
03:00+15ese71690100 5.9 9931154
06:00+15ese71493100 1.4 9921046
09:00+14se71494100 5.9 9901242
12:00+12s61181100 2.5 9941114
15:00+8sse61379100 2.6 9971660
18:00+8sse71485100 0.4 9981513
21:00+8sse81686100 0.7 10001513
4 october, tue
tue400:00+10sse8188396 1.1 10011613
03:00+9sse81579100 1.1 10021442
06:00+9sse71577100 0.0 10031407
09:00+9sse71581100 0.1 10041689
12:00+8sse61285100 1.1 10071086
15:00+9s61380100 1.4 10071368
18:00+8s41291100 1.4 10081314
21:00+7ssw51090100 2.1 10091057
5 october, wed
wed500:00+7ssw5990100 0.9 10091095
03:00+6ssw4792100 1.4 10101093
06:00+6ssw3691100 0.3 1010893
09:00+6sw3692100 0.6 1012840
12:00+7w478497 0.3 10131043
15:00+7w478099 0.5 1014847
18:00+6w278691 0.1 1016368
21:00+6wsw2794100 0.4 1016584
6 october, thu
thu600:00+7w3793100 0.3 1017447
03:00+5w269730 0.3 1018165
06:00+5sw2497100 0.0 1017127
09:00+7s2798100 0.5 1017296
12:00+9sw3996100 0.5 1016502
15:00+10wsw41095100 0.8 1016534
18:00+10sw4119395 0.0 1015538
21:00+10wsw4139525 0.0 1015524
7 october, fri
fri700:00+10w4139585 0.0 1015488
03:00+10wnw4119213 0.0 1017613
06:00+8w4129654 0.0 1018575
09:00+9w51086100 0.0 1019782
12:00+9w41085100 0.1 10211049
15:00+11w5117799 0.1 10211276
18:00+9w411820 0.0 1022569
21:00+8wsw311920 0.0 1023357